Location: Augirein
(42.9320°N, 0.9181°E)
Time: 02:49:52
(UTC+00:00)

ERBS - Pass Details

Date: 20 June 2021
Orbit: 397 x 416 km, 57.0° (Epoch: 04 August)

Event Time Altitude Azimuth Distance (km) Brightness Sun altitude
Exits shadow 02:24:29 34° 180° (S) 680 2.9 -15.6°
Maximum altitude 02:25:26 46° 132° (SE) 543 2.7 -15.5°
Drops below altitude 10° 02:28:33 10° 57° (ENE) 1,452 6.1 -15.1°
Sets 02:30:40 0° 51° (NE) 2,317 7.6 -14.9°
